This is the latest recevied weather packets stored in our database for station/object DG4CB-13. If no packets are shown the sender has not sent any weather packets the latest 10 day(s).
| Time | Temp. | Humidity | Pressure | Rain* | Wind** | Luminosity | Snow |
|---|---|---|---|---|---|---|---|
| 1788562200 | 15.56° C | 87% | 1015.2 hPa | - | - | - | - |
| 1788561600 | 16.11° C | 86% | 1015.4 hPa | - | - | - | - |
| 1788561000 | 16.11° C | 86% | 1015.4 hPa | - | - | - | - |
| 1788560400 | 16.11° C | 87% | 1015.3 hPa | - | - | - | - |
| 1788559800 | 16.11° C | 87% | 1015.2 hPa | - | - | - | - |
| 1788558601 | 15.56° C | 87% | 1014.9 hPa | - | - | - | - |
| 1788557399 | 15.56° C | 87% | 1014.9 hPa | - | - | - | - |
| 1788556799 | 16.11° C | 86% | 1014.9 hPa | - | - | - | - |
| 1788556199 | 16.11° C | 86% | 1014.8 hPa | - | - | - | - |
| 1788555599 | 16.11° C | 86% | 1015 hPa | - | - | - | - |
| 1788554999 | 16.11° C | 85% | 1014.9 hPa | - | - | - | - |
| 1788554399 | 16.67° C | 86% | 1015 hPa | - | - | - | - |
| 1788553799 | 16.67° C | 85% | 1015.2 hPa | - | - | - | - |
| 1788553200 | 16.67° C | 83% | 1014.6 hPa | - | - | - | - |
| 1788527400 | 26.67° C | 51% | 1010.5 hPa | - | - | - | - |
| 1788526800 | 27.22° C | 51% | 1010.7 hPa | - | - | - | - |
| 1788526200 | 26.67° C | 51% | 1010.7 hPa | - | - | - | - |
| 1788525600 | 26.67° C | 51% | 1010.8 hPa | - | - | - | - |
| 1788525000 | 27.22° C | 50% | 1010.9 hPa | - | - | - | - |
| 1788524400 | 27.22° C | 52% | 1010.8 hPa | - | - | - | - |
| 1788523800 | 26.67° C | 53% | 1010.9 hPa | - | - | - | - |
| 1788505800 | 20° C | 84% | 1013.7 hPa | - | - | - | - |
| 1788505200 | 19.44° C | 84% | 1013.8 hPa | - | - | - | - |
| 1788504600 | 19.44° C | 85% | 1014 hPa | - | - | - | - |
| 1788504000 | 19.44° C | 85% | 1014.1 hPa | - | - | - | - |
* Rain since midnight (hover to see other rain measurements)
** Current wind speed in m/s (hover to see current wind gust speed)